This is the latest recevied weather packets stored in our database for station/object K7BC. If no packets are shown the sender has not sent any weather packets the latest 10 day(s).
| Time | Temp. | Humidity | Pressure | Rain* | Wind** | Luminosity | Snow |
|---|---|---|---|---|---|---|---|
| 1778167745 | 12.78° C | 64% | 1012.1 hPa | 0 mm | - | - | - |
| 1778167625 | 12.78° C | 62% | 1012.2 hPa | 0 mm | - | - | - |
| 1778167505 | 12.78° C | 67% | 1012.2 hPa | 0 mm | - | - | - |
| 1778167384 | 12.78° C | 68% | 1012.3 hPa | 0 mm | - | - | - |
| 1778167264 | 12.78° C | 67% | 1012.2 hPa | 0 mm | - | - | - |
| 1778167144 | 12.78° C | 65% | 1012.3 hPa | 0 mm | - | - | - |
| 1778167024 | 12.78° C | 64% | 1012.2 hPa | 0 mm | - | - | - |
| 1778166904 | 12.78° C | 67% | 1012.3 hPa | 0 mm | - | - | - |
| 1778166784 | 12.78° C | 68% | 1012.3 hPa | 0 mm | - | - | - |
| 1778166664 | 12.78° C | 68% | 1012.3 hPa | 0 mm | - | - | - |
| 1778166544 | 12.78° C | 68% | 1012.3 hPa | 0 mm | - | - | - |
| 1778166424 | 12.78° C | 71% | 1012.2 hPa | 0 mm | - | - | - |
| 1778166304 | 12.22° C | 72% | 1012.3 hPa | 0 mm | - | - | - |
| 1778166184 | 12.22° C | 70% | 1012.4 hPa | 0 mm | - | - | - |
| 1778166064 | 12.22° C | 71% | 1012.4 hPa | 0 mm | - | - | - |
| 1778165944 | 12.22° C | 73% | 1012.4 hPa | 0 mm | - | - | - |
| 1778165824 | 12.22° C | 75% | 1012.4 hPa | 0 mm | - | - | - |
| 1778165704 | 12.22° C | 75% | 1012.6 hPa | 0 mm | - | - | - |
| 1778165583 | 12.22° C | 75% | 1012.6 hPa | 0 mm | - | - | - |
| 1778165463 | 12.22° C | 72% | 1012.5 hPa | 0 mm | - | - | - |
| 1778165343 | 12.22° C | 71% | 1012.5 hPa | 0 mm | - | - | - |
| 1778165223 | 12.22° C | 74% | 1012.5 hPa | 0 mm | - | - | - |
| 1778165105 | 12.22° C | 73% | 1012.5 hPa | 0 mm | - | - | - |
| 1778164985 | 12.22° C | 77% | 1012.5 hPa | 0 mm | - | - | - |
| 1778164865 | 12.22° C | 76% | 1012.6 hPa | 0 mm | - | - | - |
* Rain latest hour (hover to see other rain measurements)
** Current wind speed in m/s (hover to see current wind gust speed)